Lapse_Rate
4.3 4.9 6.2 6.4 6.2 6.3 6.0 5.7 5.8 6.4 6.4 6.6 6.5 6.4 6.4 6.4 6.6 6.5 6.2 6.1 5.9 6.0 6.2 6.3 5.8 5.7 5.7 6.4 6.2 6.2 6.2 6.1 6.0 6.2 6.0 6.0 6.2 6.3 6.1 6.0 6.3 6.1 6.1
3.6 4.8 6.0 6.2 5.8 5.8 5.6 5.6 5.6 5.8 6.0 6.2 6.3 6.5 6.5 6.4 6.3 6.2 6.2 6.1 6.1 6.4 6.6 6.1 5.9 6.5 6.4 6.4 6.5 6.7 6.6 6.4 6.7 6.6 6.6 6.7 6.4 6.2 6.2 6.3 6.2 6.1 6.1
3.8 5.0 5.9 5.8 5.6 5.6 5.3 5.4 5.6 6.1 5.8 6.1 6.4 6.5 6.4 6.4 6.3 6.5 6.4 6.3 6.4 6.6 6.4 6.0 6.3 6.6 7.2 6.9 6.7 6.8 6.8 7.0 6.8 6.9 6.6 6.2 6.5 6.6 6.4 6.4 6.3 6.4 6.3
4.1 5.1 5.4 5.4 5.4 5.3 5.3 5.5 5.9 6.0 6.0 6.2 6.8 6.7 7.1 7.0 6.8 6.7 6.4 6.4 6.4 6.7 6.9 6.7 6.8 7.1 7.1 7.1 7.0 6.8 6.8 6.9 6.7 6.3 5.9 6.1 6.6 6.7 6.5 6.5 6.5 6.1 6.0
3.9 4.9 5.5 5.3 5.4 5.5 5.5 5.7 6.2 6.1 6.0 6.5 6.5 7.1 6.7 6.8 6.4 6.4 6.4 6.5 6.6 6.8 6.8 6.9 6.8 7.0 7.4 7.3 7.1 7.0 6.8 6.6 6.5 5.2 5.1 5.5 5.8 6.4 6.5 6.4 6.3 6.3 6.1
4.4 5.0 5.6 5.5 5.8 5.6 5.6 5.7 6.3 5.8 6.0 6.9 6.9 6.2 6.4 6.2 6.3 6.4 6.5 6.5 6.6 6.6 6.8 7.1 7.0 6.9 7.1 7.2 7.0 7.1 6.6 6.7 5.5 5.0 5.1 5.6 5.8 6.5 6.4 6.5 6.5 6.4 6.2
3.8 5.0 5.3 5.5 5.6 5.6 5.4 5.5 5.6 5.8 6.2 6.7 6.5 6.4 6.3 6.3 6.4 6.2 6.4 6.5 6.5 6.6 6.8 6.8 7.0 6.8 7.2 6.9 7.1 7.2 6.4 6.3 4.8 4.8 4.6 4.9 5.8 6.4 6.6 6.2 6.6 6.5 6.5
4.2 4.5 5.2 5.5 5.5 5.5 5.4 5.6 5.6 5.9 5.9 6.2 5.9 6.3 6.3 6.3 6.4 6.5 6.5 6.4 6.5 6.6 6.7 6.7 6.9 6.9 7.1 7.0 7.0 7.0 6.6 6.1 4.8 4.4 4.6 5.2 5.9 6.0 6.2 6.3 6.3 6.5 6.4
4.9 4.6 4.7 5.0 5.5 5.5 5.4 5.5 5.6 5.9 5.8 5.9 5.9 5.9 6.1 6.1 6.3 6.5 6.3 6.2 6.5 6.7 6.6 6.8 6.9 7.1 7.2 7.1 6.9 6.8 6.8 5.5 4.0 3.9 4.2 4.7 5.8 6.3 6.1 6.6 6.4 6.4 6.4
4.5 4.1 3.7 4.4 4.6 4.6 5.1 5.5 5.7 5.8 5.7 5.7 5.9 5.7 6.1 6.0 6.5 6.7 5.9 6.0 6.2 6.6 6.4 6.6 7.3 7.2 7.1 7.2 6.9 6.7 6.4 5.7 4.6 4.5 4.2 4.8 5.8 6.2 6.6 6.6 6.6 6.2 6.3
4.8 3.7 3.0 2.9 3.4 3.7 4.4 5.4 5.6 5.6 5.6 5.7 5.6 5.0 4.5 4.3 4.9 5.7 5.8 6.1 6.3 6.4 6.5 7.1 7.2 7.1 7.4 7.0 6.7 6.5 5.9 5.0 5.0 4.6 4.6 5.4 6.1 6.3 6.2 6.4 6.5 6.2 6.3
5.2 4.2 2.7 2.4 2.6 3.1 4.5 4.5 4.6 4.9 4.9 4.6 4.3 4.1 4.0 4.1 4.7 5.0 5.3 6.3 6.3 6.2 6.2 6.0 6.0 6.3 6.5 6.4 6.4 5.8 4.9 4.6 4.9 4.5 4.8 5.7 6.0 6.2 6.7 6.5 6.2 6.0 6.2
4.5 4.5 2.7 2.0 2.5 2.6 3.9 3.0 3.5 3.8 4.0 4.0 4.0 3.9 3.7 3.7 3.9 4.5 4.5 5.1 5.2 5.5 4.9 4.9 4.8 4.9 5.3 5.6 5.7 4.8 4.6 4.4 4.5 4.7 4.9 5.6 6.0 6.1 6.0 6.0 6.0 6.1 6.2
4.1 4.0 2.7 2.2 1.8 2.1 2.9 2.3 2.8 2.8 3.1 2.8 3.2 3.4 2.9 2.6 3.1 3.5 3.6 4.2 4.6 4.3 4.2 4.2 4.0 5.0 5.0 5.0 5.2 4.7 4.9 4.4 4.1 4.5 4.9 5.8 6.3 6.1 5.9 5.5 5.5 5.6 5.5
4.1 4.1 2.9 2.3 1.6 1.9 1.7 2.1 2.5 2.6 3.2 3.4 3.0 3.0 2.8 2.7 2.7 3.5 3.7 4.1 4.2 4.2 4.4 3.8 3.4 4.5 4.2 4.2 4.4 4.6 4.1 4.2 3.9 3.9 4.4 5.7 5.9 6.2 6.0 5.9 5.7 5.4 5.4
4.3 3.8 3.2 2.5 2.1 2.0 1.1 1.6 2.0 3.0 3.6 3.5 3.4 3.5 3.0 3.2 3.3 3.2 3.1 3.6 3.9 4.1 4.1 3.9 3.5 3.6 3.4 3.6 3.7 4.3 3.7 4.1 3.7 3.7 4.1 5.4 5.7 6.0 6.0 6.0 5.8 5.9 5.9
4.5 3.9 3.2 2.6 2.4 1.6 1.6 1.8 2.6 3.3 4.0 3.3 3.2 3.5 3.6 3.3 3.8 3.4 3.1 3.2 3.6 4.1 4.0 3.9 4.0 3.7 3.0 3.9 4.1 3.4 3.7 3.9 3.8 3.7 4.0 4.4 5.4 5.9 6.1 6.3 5.9 5.8 5.8
4.9 4.2 3.4 4.4 3.2 2.1 2.1 2.5 3.3 3.7 3.8 3.9 3.6 3.6 3.8 3.4 3.6 3.4 3.0 3.2 4.1 3.8 3.4 3.1 2.8 3.2 3.1 3.4 3.4 3.2 3.2 3.9 4.0 4.1 4.2 4.0 4.6 5.1 5.7 5.9 5.8 6.0 6.0
5.1 4.4 4.1 3.7 3.2 2.4 2.3 3.0 3.6 4.2 3.0 3.3 3.7 3.6 3.7 3.7 4.0 3.5 3.5 3.6 4.1 3.6 2.8 3.4 3.3 2.7 4.4 3.7 3.4 2.8 2.4 2.6 3.2 4.2 4.0 3.8 4.4 4.8 4.9 5.8 5.9 6.0 6.2
5.2 4.9 4.5 4.1 3.2 2.8 2.6 2.4 2.9 3.3 3.2 3.3 3.2 3.5 4.0 3.6 4.1 3.5 3.1 3.7 3.8 3.1 3.0 3.2 3.6 2.8 2.9 3.4 4.5 3.3 2.9 3.0 3.5 3.4 4.0 4.2 4.3 4.6 4.8 5.0 5.3 5.4 6.2
5.4 5.1 4.5 4.6 3.8 3.3 2.5 2.8 2.7 3.3 3.0 2.8 2.8 4.0 4.2 3.8 4.0 3.6 2.9 3.2 3.5 2.6 3.7 3.7 3.3 3.5 2.6 1.8 2.6 2.7 2.4 2.6 3.1 2.8 3.4 3.7 3.9 4.4 4.3 4.8 4.9 5.0 5.2
5.6 5.5 4.9 4.6 4.0 3.8 4.4 4.2 2.5 2.4 2.6 2.9 3.2 3.7 4.5 4.4 4.1 3.7 3.1 2.9 3.3 3.0 3.3 3.7 3.9 2.9 2.4 1.7 2.7 2.1 3.6 3.6 2.1 2.5 2.3 3.7 3.1 3.9 3.7 4.1 4.5 4.8 5.0
5.5 5.3 5.1 4.7 4.5 4.4 4.5 2.4 1.8 2.2 2.4 2.5 2.8 2.8 3.1 4.4 4.4 4.2 3.7 3.0 2.9 2.4 2.8 3.3 3.4 3.5 3.4 2.3 2.5 2.7 2.9 3.5 1.6 2.2 3.0 2.8 3.1 2.4 3.1 3.9 4.1 4.5 4.3
5.5 5.1 5.1 5.2 4.6 4.3 3.5 3.8 3.2 4.5 4.3 2.8 2.0 2.5 2.8 4.1 4.1 4.4 4.0 3.5 3.2 2.4 2.5 3.2 3.2 3.0 2.3 3.1 2.5 2.6 1.7 1.7 2.9 3.9 2.6 2.8 2.6 2.7 2.0 2.7 3.7 4.1 4.4
6.9 4.9 4.9 4.7 4.4 4.3 3.2 4.6 4.0 3.9 3.1 1.4 1.7 2.5 2.6 2.7 3.9 4.2 4.1 3.5 2.8 2.4 2.8 3.1 3.2 3.0 1.9 2.0 2.4 2.3 2.1 1.2 1.0 1.9 2.9 2.8 2.2 1.9 1.7 2.1 3.1 3.6 4.0
6.7 5.1 4.5 4.0 4.0 3.8 3.2 3.9 3.7 3.7 1.3 1.2 1.4 1.7 2.0 2.3 3.1 3.2 3.7 3.5 3.4 2.8 2.7 2.8 3.1 2.8 2.5 1.8 1.7 1.9 2.7 2.8 2.1 1.8 1.7 1.3 2.0 2.3 1.5 1.5 1.9 2.8 3.6
Wind_Speed
3 12 18 20 21 19 22 22 20 21 21 20 20 21 20 20 20 19 18 17 16 14 12 13 12 12 11 12 13 13 14 15 15 14 14 14 13 16 16 16 15 15 17
6 13 18 19 20 20 20 21 20 19 20 20 20 19 19 20 19 19 17 16 15 13 13 12 13 12 12 12 13 14 15 15 14 13 12 11 12 16 15 15 15 16 17
9 14 17 19 19 19 19 20 18 18 18 18 18 17 17 18 18 18 16 14 13 12 13 12 13 11 11 12 13 14 15 15 14 14 14 13 13 13 16 15 16 15 15
13 13 15 19 18 19 18 18 18 18 17 16 17 16 16 16 17 16 15 13 12 10 11 12 12 12 12 13 13 13 14 16 14 12 11 13 14 15 16 16 16 16 15
9 14 18 19 18 19 18 17 16 18 16 16 16 15 15 17 16 15 14 13 11 8 8 9 10 11 11 12 12 11 9 9 13 11 12 14 14 15 16 15 15 15 14
10 14 20 20 19 18 18 16 17 16 16 13 16 15 16 15 15 15 14 13 11 10 8 8 9 8 10 11 9 9 10 16 15 13 12 12 13 15 14 14 14 14 14
8 14 18 19 18 17 17 16 15 15 14 12 16 14 15 14 15 14 14 13 12 10 10 10 10 8 10 8 9 12 15 16 16 13 11 11 13 15 13 13 14 13 13
10 12 16 19 18 16 16 15 15 15 13 12 13 13 13 12 12 13 13 12 11 10 11 10 11 9 9 9 8 7 15 15 12 13 12 13 13 13 13 13 13 13 12
12 11 13 16 17 16 15 14 14 14 13 12 12 12 11 11 10 11 12 11 10 9 9 10 11 12 9 8 8 6 16 14 13 11 11 13 13 14 12 12 13 13 12
7 8 8 12 14 14 14 13 13 13 13 12 11 11 9 8 8 10 8 9 9 8 6 7 10 10 9 9 8 11 14 14 12 9 7 10 13 13 12 11 11 12 11
7 5 7 9 12 13 11 12 13 12 12 11 11 9 8 5 6 4 5 7 7 7 6 7 8 7 9 10 10 12 11 14 11 9 8 11 12 12 12 12 11 11 10
14 8 5 7 9 11 9 10 11 10 9 9 9 7 6 4 4 4 2 5 4 4 5 7 5 3 4 7 8 10 11 11 12 11 10 11 11 11 11 11 11 11 10
14 9 7 5 10 10 7 10 9 8 8 7 7 8 7 5 2 3 3 3 2 3 4 5 5 4 3 4 6 8 11 12 12 12 11 12 12 11 11 11 11 9 9
13 11 9 7 7 9 9 8 9 7 8 7 7 7 7 5 3 2 2 3 2 4 3 3 3 4 4 2 5 7 10 11 12 12 11 10 10 11 11 11 10 10 9
13 12 11 8 7 8 7 6 7 7 8 8 8 6 7 6 3 2 3 3 1 1 2 4 3 3 1 3 5 10 7 11 13 13 13 13 11 11 10 10 10 10 9
14 13 12 11 9 9 5 7 6 9 10 10 11 9 7 7 8 5 5 2 1 1 2 3 3 3 3 5 2 8 9 12 11 12 12 12 14 12 11 10 9 8 7
14 14 13 12 10 8 7 7 8 11 11 10 12 13 11 8 9 7 2 1 1 1 2 2 3 4 3 3 4 6 9 8 10 11 12 9 8 10 10 10 10 8 8
14 14 13 12 11 8 7 7 8 11 11 10 12 13 13 12 9 6 4 2 2 1 2 2 2 2 2 2 2 3 3 7 8 10 9 9 9 9 10 11 10 9 9
15 14 13 11 11 9 7 8 8 10 8 12 11 13 14 13 11 7 5 4 4 1 1 1 1 1 1 2 3 3 2 2 6 7 8 8 8 7 9 10 11 9 8
14 14 14 11 9 9 5 4 3 3 3 8 10 12 14 14 14 9 6 5 5 2 1 1 0 2 2 2 4 3 2 1 2 3 6 7 7 6 7 7 6 8 7
14 14 15 15 11 8 4 4 4 4 2 2 7 13 14 12 12 11 6 6 6 3 3 2 2 2 3 2 4 3 3 3 3 0 3 6 6 7 6 6 5 5 4
17 17 16 17 14 11 9 7 3 3 3 2 3 10 15 14 13 8 8 4 4 4 4 3 2 2 2 1 3 2 2 4 3 2 1 2 4 5 5 7 5 5 5
17 18 17 18 17 15 14 3 2 3 2 3 1 2 6 14 13 11 10 7 5 3 4 3 3 4 2 1 1 4 2 2 1 2 1 2 3 2 5 7 7 7 7
17 16 17 17 17 15 12 10 8 7 7 4 4 3 4 13 13 13 11 9 7 4 4 3 3 2 3 3 2 2 2 4 3 1 2 2 3 4 5 6 8 11 9
18 17 17 18 17 17 14 15 10 7 5 3 3 6 5 5 12 13 12 9 5 4 4 4 3 3 2 3 2 2 2 3 3 3 3 3 2 4 4 6 10 13 13
19 17 17 18 17 17 15 14 14 13 7 5 4 4 4 4 6 9 11 9 8 5 5 5 4 4 4 1 2 2 3 3 3 3 2 3 3 3 4 5 7 12 16
Wind_Direction
199 135 132 126 125 122 114 114 112 111 113 114 115 122 126 128 130 129 126 127 126 126 121 110 101 105 107 104 106 103 101 101 101 101 101 104 109 104 100 99 99 98 94
143 145 137 128 127 123 119 113 114 113 112 111 115 122 125 126 125 125 126 128 126 126 115 106 99 102 107 111 111 112 112 112 110 105 106 122 118 109 105 103 98 96 95
141 143 140 132 129 123 117 115 115 111 112 113 113 115 120 125 124 122 123 122 124 123 117 114 109 109 109 116 117 116 118 115 111 109 106 98 118 113 109 109 103 103 100
141 143 139 135 131 125 118 120 120 114 115 113 114 117 119 112 114 120 124 124 123 125 124 117 111 110 115 113 118 121 124 116 113 97 98 103 110 116 116 110 108 105 104
131 137 144 136 134 129 125 124 116 115 116 113 122 113 107 115 114 115 118 120 116 112 98 100 104 113 111 111 108 110 118 144 124 105 103 107 110 117 114 115 111 110 109
132 143 143 140 136 136 129 126 121 121 123 125 115 116 115 114 116 118 118 115 113 111 103 102 100 109 112 109 107 104 108 121 125 121 112 109 114 122 117 120 119 115 112
136 146 146 143 138 139 134 131 127 126 126 120 113 114 113 116 118 119 114 109 108 106 103 100 98 107 113 117 109 111 109 119 123 124 117 115 117 122 117 119 115 119 115
140 141 150 143 143 141 138 138 135 133 126 118 109 110 114 118 119 115 112 113 111 106 97 94 90 99 110 117 100 109 134 130 124 123 121 121 122 121 125 122 120 117 110
142 138 146 147 150 150 147 144 140 135 130 125 122 113 118 120 121 118 115 116 115 107 104 103 97 93 101 105 106 111 136 133 127 128 133 133 135 130 128 125 119 121 119
141 135 140 143 151 157 150 150 145 139 137 134 128 125 121 120 124 124 127 125 120 113 114 111 104 105 101 107 99 116 126 130 130 122 119 137 137 134 133 126 125 121 118
143 144 139 141 153 160 157 157 152 150 146 141 133 127 118 114 117 104 134 132 130 126 105 81 83 110 123 111 121 122 127 140 136 127 130 152 140 136 132 131 133 115 120
165 162 157 155 155 161 165 169 162 163 155 143 143 139 140 145 136 140 243 163 140 101 85 72 88 108 121 144 133 135 154 159 145 145 152 153 140 135 130 128 124 130 132
167 167 174 164 163 172 168 177 166 173 166 164 163 177 172 182 187 164 209 170 151 74 56 48 68 97 105 188 155 152 146 152 151 152 165 164 147 143 137 136 137 129 122
167 175 179 173 172 187 182 181 174 176 180 184 194 191 180 187 171 116 203 198 178 107 84 29 33 41 75 148 198 176 168 150 158 156 171 167 160 154 152 150 136 134 141
171 177 184 178 181 190 190 175 184 186 189 188 189 202 197 194 157 165 234 218 201 120 109 30 42 22 27 74 193 190 159 147 158 162 172 176 170 165 159 158 158 162 162
175 180 181 189 190 182 191 181 185 196 196 193 203 206 206 205 163 190 225 218 194 123 104 37 19 68 18 28 129 168 149 166 149 159 180 185 183 174 173 167 176 176 177
180 178 183 188 191 187 192 187 189 201 207 196 205 207 203 219 187 194 193 262 50 131 69 146 79 88 41 65 94 108 153 137 144 170 189 194 184 190 189 182 190 193 202
178 178 183 189 192 193 185 184 198 208 208 211 205 210 204 214 211 178 173 150 203 223 33 1 72 104 136 129 97 137 139 143 157 172 185 194 183 192 203 205 206 204 215
180 177 182 188 189 194 194 181 203 209 214 197 190 195 198 208 202 177 169 171 166 168 295 287 333 200 129 111 152 134 162 162 168 173 179 190 185 204 212 213 214 216 223
183 180 180 187 186 192 190 158 172 169 197 184 185 187 191 207 197 177 148 141 153 174 152 145 185 38 38 95 84 88 129 188 203 194 170 169 189 210 223 224 228 233 228
186 183 184 186 189 180 175 175 178 182 182 184 190 183 188 199 199 174 152 159 174 148 155 148 105 99 37 87 90 10 32 26 230 278 227 165 186 212 219 222 199 220 238
187 191 189 193 185 188 196 199 177 159 166 168 180 182 187 193 206 195 163 169 173 145 145 155 170 105 65 76 121 93 46 338 9 28 67 263 209 218 215 220 209 212 216
185 191 191 193 193 193 194 146 76 80 73 117 218 173 190 195 197 208 192 171 176 163 169 176 167 143 139 44 109 133 99 211 345 351 39 237 240 245 244 230 225 233 228
192 186 190 196 195 194 181 186 189 194 195 190 163 188 190 195 195 207 207 185 180 172 189 193 167 152 123 150 41 60 86 140 150 6 328 289 230 234 230 229 236 238 228
189 186 188 190 194 193 189 192 194 200 196 156 147 166 196 197 202 203 207 198 182 182 202 194 170 164 160 146 160 149 70 54 83 123 230 283 305 236 232 227 225 237 233
194 188 187 186 193 194 190 196 194 198 176 163 180 176 192 197 208 210 199 199 202 189 180 200 200 174 176 171 172 168 164 162 188 150 148 236 223 265 236 219 219 229 231